Location: Tucson
(32.2217°N, 110.9265°W)
Time: 06:47:59
(UTC-07:00)

Tiros 1 - Pass Details

Date: 01 November 2021
Orbit: 629 x 664 km, 48.4° (Epoch: 26 November)

Event Time Altitude Azimuth Distance (km) Brightness Sun altitude
Rises 15:20:52 0° 289° (WNW) 2,952 11.0 24.1°
Reaches altitude 10° 15:24:14 10° 264° (W) 2,030 10.8 23.5°
Maximum altitude 15:26:39 14° 233° (SW) 1,763 11.9 23.1°
Drops below altitude 10° 15:29:04 10° 201° (SSW) 2,013 10.8 22.7°
Sets 15:32:23 0° 176° (S) 2,909 10.9 22.1°
